| time (UTC) | temp F | wind direction | speed MPH | gust MPH | rain 1hr in | rain 24hr in | rain mn in | humidity % | barometer mb |
| 20260510054510 | 35 | 327 | 3.0 | 4.0 | 0.00 | 0.00 | 0.00 | 82 | 1012.4 |
| 20260510053005 | 35 | 328 | 2.0 | 3.0 | 0.00 | 0.00 | 0.00 | 82 | 1012.5 |
| 20260510051500 | 36 | 328 | 1.0 | 3.0 | 0.00 | 0.00 | 0.00 | 80 | 1012.3 |
| 20260510050108 | 37 | 328 | 1.0 | 2.0 | 0.00 | 0.00 | 0.00 | 78 | 1012.3 |
| 20260510044555 | 38 | 328 | 0.0 | 2.0 | 0.00 | 0.00 | 0.00 | 76 | 1012.0 |
| 20260510043051 | 39 | 328 | 0.0 | 2.0 | 0.00 | 0.00 | 0.00 | 75 | 1011.9 |
| 20260510041547 | 40 | 328 | 0.0 | 3.0 | 0.00 | 0.00 | 0.00 | 71 | 1011.7 |
| 20260510040046 | 41 | 327 | 1.0 | 4.0 | 0.00 | 0.00 | 0.00 | 69 | 1011.7 |
| 20260510034543 | 42 | 335 | 2.0 | 6.0 | 0.00 | 0.00 | 0.00 | 68 | 1011.6 |
| 20260510033053 | 42 | 13 | 3.0 | 8.0 | 0.00 | 0.00 | 0.00 | 68 | 1011.5 |
| 20260510031546 | 42 | 299 | 4.0 | 10.0 | 0.00 | 0.00 | 0.00 | 68 | 1011.4 |
| 20260510030041 | 42 | 32 | 1.0 | 10.0 | 0.00 | 0.00 | 0.00 | 69 | 1011.3 |
| 20260510024536 | 41 | 344 | 3.0 | 6.0 | 0.00 | 0.00 | 0.00 | 71 | 1011.2 |
| 20260510023034 | 42 | 308 | 0.0 | 3.0 | 0.00 | 0.00 | 0.00 | 70 | 1011.0 |
| 20260510021611 | 42 | 350 | 2.0 | 5.0 | 0.00 | 0.00 | 0.00 | 68 | 1010.7 |
| 20260510020028 | 43 | 5 | 3.0 | 10.0 | 0.00 | 0.00 | 0.00 | 67 | 1010.5 |
| 20260510014540 | 43 | 355 | 2.0 | 9.0 | 0.00 | 0.00 | 0.00 | 66 | 1010.3 |
| 20260510013024 | 44 | 22 | 3.0 | 11.0 | 0.00 | 0.00 | 0.00 | 65 | 1010.1 |
| 20260510011520 | 44 | 360 | 4.0 | 10.0 | 0.00 | 0.00 | 0.00 | 65 | 1009.7 |
| 20260510010029 | 45 | 9 | 3.0 | 9.0 | 0.00 | 0.00 | 0.00 | 63 | 1009.3 |
| 20260510004514 | 45 | 336 | 4.0 | 11.0 | 0.00 | 0.00 | 0.00 | 63 | 1009.1 |
| 20260510003013 | 46 | 36 | 5.0 | 14.0 | 0.00 | 0.00 | 0.00 | 63 | 1008.9 |
| 20260510001511 | 46 | 17 | 7.0 | 13.0 | 0.00 | 0.00 | 0.00 | 62 | 1008.5 |
| 20260510000008 | 48 | 281 | 5.0 | 16.0 | 0.00 | 0.00 | 0.00 | 61 | 1008.1 |
| 20260509234503 | 48 | 337 | 7.0 | 19.0 | 0.00 | 0.00 | 0.00 | 62 | 1007.6 |
| 20260509233102 | 48 | 9 | 8.0 | 17.0 | 0.00 | 0.00 | 0.00 | 62 | 1007.2 |
| 20260509231604 | 48 | 313 | 6.0 | 16.0 | 0.00 | 0.00 | 0.00 | 62 | 1006.9 |
| 20260509230055 | 49 | 351 | 4.0 | 17.0 | 0.00 | 0.00 | 0.00 | 60 | 1006.7 |
| 20260509224552 | 52 | 5 | 11.0 | 17.0 | 0.00 | 0.00 | 0.00 | 52 | 1006.4 |
| 20260509223052 | 53 | 335 | 7.0 | 13.0 | 0.00 | 0.00 | 0.00 | 48 | 1005.6 |
| 20260509221549 | 54 | 348 | 9.0 | 15.0 | 0.00 | 0.00 | 0.00 | 46 | 1005.5 |
| 20260509220048 | 55 | 292 | 5.0 | 11.0 | 0.00 | 0.00 | 0.00 | 46 | 1004.9 |
| 20260509214545 | 55 | 209 | 2.0 | 10.0 | 0.00 | 0.00 | 0.00 | 47 | 1004.4 |
| 20260509213050 | 55 | 292 | 2.0 | 9.0 | 0.00 | 0.00 | 0.00 | 48 | 1004.0 |
| 20260509211539 | 55 | 30 | 1.0 | 6.0 | 0.00 | 0.00 | 0.00 | 51 | 1004.0 |
| 20260509210044 | 54 | 304 | 3.0 | 10.0 | 0.00 | 0.00 | 0.00 | 52 | 1003.8 |
| 20260509204539 | 53 | 291 | 3.0 | 11.0 | 0.00 | 0.00 | 0.00 | 56 | 1003.9 |
| 20260509203036 | 53 | 275 | 5.0 | 12.0 | 0.00 | 0.00 | 0.00 | 59 | 1003.9 |
| 20260509201538 | 54 | 267 | 2.0 | 12.0 | 0.00 | 0.00 | 0.00 | 58 | 1003.4 |
| 20260509200037 | 54 | 287 | 2.0 | 17.0 | 0.00 | 0.00 | 0.00 | 59 | 1003.2 |
| 20260509194549 | 56 | 29 | 5.0 | 23.0 | 0.00 | 0.00 | 0.00 | 60 | 1002.8 |
| 20260509193035 | 56 | 192 | 4.0 | 18.0 | 0.00 | 0.00 | 0.00 | 58 | 1002.4 |
| 20260509191532 | 56 | 244 | 4.0 | 15.0 | 0.00 | 0.00 | 0.00 | 59 | 1002.3 |
| 20260509190032 | 57 | 259 | 8.0 | 19.0 | 0.00 | 0.00 | 0.00 | 56 | 1001.9 |
| 20260509184535 | 57 | 332 | 9.0 | 18.0 | 0.00 | 0.00 | 0.00 | 53 | 1001.7 |
| 20260509183035 | 56 | 237 | 6.0 | 16.0 | 0.00 | 0.00 | 0.00 | 51 | 1001.7 |
| 20260509181531 | 56 | 215 | 5.0 | 18.0 | 0.00 | 0.00 | 0.00 | 50 | 1001.5 |
| 20260509180040 | 56 | 222 | 6.0 | 14.0 | 0.00 | 0.00 | 0.00 | 50 | 1001.4 |
| 20260509174530 | 57 | 250 | 3.0 | 20.0 | 0.00 | 0.00 | 0.00 | 51 | 1001.2 |
| 20260509173034 | 57 | 276 | 2.0 | 19.0 | 0.00 | 0.00 | 0.00 | 53 | 1000.9 |
| 20260509171535 | 57 | 225 | 5.0 | 17.0 | 0.00 | 0.00 | 0.00 | 48 | 1000.9 |
| 20260509170029 | 58 | 182 | 8.0 | 22.0 | 0.00 | 0.00 | 0.00 | 49 | 1000.6 |
| 20260509164525 | 57 | 229 | 5.0 | 11.0 | 0.00 | 0.00 | 0.00 | 50 | 1000.6 |
| 20260509163029 | 56 | 203 | 6.0 | 14.0 | 0.00 | 0.00 | 0.00 | 49 | 1000.5 |
| 20260509161525 | 55 | 232 | 4.0 | 12.0 | 0.00 | 0.00 | 0.00 | 50 | 1000.4 |
| 20260509160024 | 54 | 217 | 6.0 | 15.0 | 0.00 | 0.00 | 0.00 | 55 | 1000.5 |
| 20260509154523 | 53 | 202 | 3.0 | 12.0 | 0.00 | 0.00 | 0.00 | 58 | 1000.5 |
| 20260509153038 | 53 | 236 | 8.0 | 13.0 | 0.00 | 0.00 | 0.00 | 59 | 1000.1 |
| 20260509151521 | 52 | 217 | 5.0 | 14.0 | 0.00 | 0.00 | 0.00 | 62 | 1000.1 |
| 20260509150021 | 51 | 194 | 7.0 | 16.0 | 0.00 | 0.00 | 0.00 | 64 | 1000.2 |
| 20260509144520 | 51 | 258 | 5.0 | 19.0 | 0.00 | 0.00 | 0.00 | 67 | 999.9 |
| 20260509143019 | 52 | 219 | 6.0 | 16.0 | 0.00 | 0.00 | 0.00 | 67 | 999.6 |
| 20260509141522 | 53 | 234 | 3.0 | 18.0 | 0.00 | 0.00 | 0.00 | 67 | 998.7 |
| 20260509140017 | 54 | 245 | 5.0 | 12.0 | 0.00 | 0.00 | 0.00 | 66 | 998.5 |
| 20260509134517 | 56 | 241 | 7.0 | 12.0 | 0.00 | 0.00 | 0.00 | 66 | 998.1 |
| 20260509133021 | 56 | 191 | 6.0 | 18.0 | 0.00 | 0.00 | 0.00 | 67 | 997.9 |
| 20260509131514 | 56 | 220 | 6.0 | 10.0 | 0.00 | 0.00 | 0.00 | 71 | 997.6 |
| 20260509130014 | 56 | 227 | 4.0 | 12.0 | 0.00 | 0.00 | 0.00 | 72 | 997.6 |
| 20260509124514 | 56 | 201 | 8.0 | 13.0 | 0.00 | 0.00 | 0.00 | 72 | 997.7 |
| 20260509123010 | 55 | 173 | 4.0 | 10.0 | 0.00 | 0.00 | 0.00 | 74 | 997.7 |
| 20260509121508 | 53 | 240 | 7.0 | 17.0 | 0.00 | 0.00 | 0.00 | 75 | 997.7 |
| 20260509120008 | 53 | 215 | 5.0 | 15.0 | 0.00 | 0.00 | 0.00 | 75 | 997.8 |
| 20260509114507 | 53 | 150 | 6.0 | 16.0 | 0.00 | 0.00 | 0.00 | 74 | 997.8 |
| 20260509113007 | 53 | 208 | 6.0 | 15.0 | 0.00 | 0.00 | 0.00 | 73 | 997.8 |
| 20260509111505 | 54 | 144 | 7.0 | 17.0 | 0.00 | 0.00 | 0.00 | 71 | 997.9 |
| 20260509110005 | 54 | 190 | 6.0 | 13.0 | 0.00 | 0.00 | 0.00 | 71 | 997.7 |
| 20260509104504 | 54 | 213 | 8.0 | 17.0 | 0.00 | 0.00 | 0.00 | 70 | 997.6 |
| 20260509103001 | 54 | 161 | 8.0 | 16.0 | 0.00 | 0.00 | 0.00 | 70 | 998.1 |
| 20260509101625 | 51 | 215 | 4.0 | 11.0 | 0.00 | 0.00 | 0.00 | 71 | 998.2 |
| 20260509100059 | 49 | 177 | 0.0 | 3.0 | 0.00 | 0.00 | 0.00 | 71 | 998.3 |
| 20260509094559 | 50 | 177 | 0.0 | 2.0 | 0.00 | 0.00 | 0.00 | 67 | 998.6 |
| 20260509093049 | 52 | 177 | 0.0 | 3.0 | 0.00 | 0.00 | 0.00 | 64 | 999.0 |
| 20260509091551 | 53 | 188 | 0.0 | 5.0 | 0.00 | 0.00 | 0.00 | 60 | 999.1 |
| 20260509090053 | 53 | 184 | 1.0 | 8.0 | 0.00 | 0.00 | 0.00 | 58 | 999.4 |
| 20260509084543 | 53 | 206 | 3.0 | 9.0 | 0.00 | 0.00 | 0.00 | 55 | 999.7 |
| 20260509083041 | 53 | 160 | 4.0 | 14.0 | 0.00 | 0.00 | 0.00 | 52 | 999.9 |
| 20260509081535 | 53 | 163 | 3.0 | 10.0 | 0.00 | 0.00 | 0.00 | 49 | 1000.2 |
| 20260509080043 | 54 | 211 | 6.0 | 16.0 | 0.00 | 0.00 | 0.00 | 47 | 1000.4 |
| 20260509074538 | 54 | 192 | 3.0 | 10.0 | 0.00 | 0.00 | 0.00 | 45 | 1000.3 |
| 20260509073038 | 54 | 205 | 5.0 | 10.0 | 0.00 | 0.00 | 0.00 | 44 | 1000.4 |
| 20260509071526 | 55 | 184 | 5.0 | 14.0 | 0.00 | 0.00 | 0.00 | 43 | 1000.8 |
| 20260509070024 | 54 | 146 | 2.0 | 8.0 | 0.00 | 0.00 | 0.00 | 46 | 1001.0 |
| 20260509064521 | 54 | 187 | 4.0 | 10.0 | 0.00 | 0.00 | 0.00 | 47 | 1001.3 |
| 20260509063028 | 54 | 159 | 3.0 | 9.0 | 0.00 | 0.00 | 0.00 | 46 | 1001.7 |
| 20260509061516 | 53 | 196 | 4.0 | 9.0 | 0.00 | 0.00 | 0.00 | 46 | 1001.9 |
| 20260509060022 | 54 | 165 | 3.0 | 9.0 | 0.00 | 0.00 | 0.00 | 46 | 1002.2 |